Tracking 20719 objects as of 26-May-2020
HD Live streaming from Space Station
objects crossing your sky now

USA 7

Track USA 7 now!
USA 7 is classified as:


NORAD ID: 15453
Int'l Code: 1984-129A
Perigee: 36,181.1 km
Apogee: 36,208.6 km
Inclination: 14.9 °
Period: 1,456.6 minutes
Semi major axis: 42565 km
RCS: Unknown
Launch date: December 22, 1984
Source: United States (US)
Launch site: AIR FORCE EASTERN TEST RANGE (AFETR)
aabbcc
Your satellite tracking list
Your tracking list is empty




NASA's NSSDC Master Catalog

Two Line Element Set (TLE):
1 15453U 84129A   20146.39482574 -.00000235  00000-0  00000+0 0  9997
2 15453  14.8973 339.7843 0003230  39.4509 135.5640  0.98857737  4144
Source of the keplerian elements: McCants